Weather in Kotino

Russia / Kemerovo Oblast     54°14′44″N   86°55′01″E
temp.,
°C
wind,
m/s
gust,
m/s
humid.,
%
clouds,
%
prec.,
mm/h
press.,
hPa
HPBL,
m
20 april, tue
tue2001:00−7n4566100 0.1 1024874
04:00−7n3361100 0.0 1024892
07:00−7nnw2359100 0.1 1025907
10:00−6nw4445100 0.1 10261605
13:00−3nw4434100 0.1 10261960
16:00−2nw4536100 0.0 10252057
19:00−3nw454494 0.0 10261440
22:00−5e126828 0.0 1027106
21 april, wed
wed2101:00−5sse236735 0.0 1027217
04:00−5s237036 0.0 1026163
07:00−5s3466100 0.0 1026458
10:00−3s3453100 0.0 10251252
13:00−1s3340100 0.0 10241655
16:00+1sse2137100 0.0 10231657
19:000ene114069 0.0 10241485
22:00−3ne36666 0.0 1026132
22 april, thu
thu2201:00−3n247114 0.0 102798
04:00−4nne237560 0.0 1028111
07:00−4nne246023 0.0 1031188
10:000ne44435 0.0 1033675
13:00+3ne5537100 0.0 10342291
16:00+3nne6649100 0.3 10361517
19:00+1nne686293 0.5 1038903
22:00−1nne410755 0.0 1041270
23 april, fri
fri2301:00−2nne49814 0.0 1041207
04:00−3nne410814 0.0 1041250
07:00−2nne511742 0.0 1041354
10:00+2ne68545 0.0 1040902
13:00+6ne774490 0.0 10391766
16:00+7ne6743100 0.0 10371953
19:00+5nne6961100 0.1 1038799
22:00+2nne61273100 0.0 1038418
24 april, sat
sat2401:000nne4117991 0.0 1036305
04:00−1n48838 0.0 1034199
07:000n388068 0.0 1033265
10:00+4nne335851 0.0 1032993
13:00+5n2257100 0.0 10311061
16:00+5nnw3260100 0.1 10311036
19:00+5nne1164100 0.1 1031840
22:00+2nne118546 0.1 103110